TimeCDT,TemperatureF,Dew PointF,Humidity,Sea Level PressureIn,VisibilityMPH,Wind Direction,Wind SpeedMPH,Gust SpeedMPH,PrecipitationIn,Events,Conditions,WindDirDegrees,DateUTC
12:15 AM,75.4,63.7,67,30.13,10.0,South,6.9,-,N/A,,Clear,170,2013-08-25 05:15:00
12:35 AM,74.7,63.7,69,30.13,10.0,South,6.9,-,N/A,,Clear,180,2013-08-25 05:35:00
12:55 AM,74.5,63.7,69,30.13,10.0,South,8.1,-,N/A,,Clear,170,2013-08-25 05:55:00
1:15 AM,74.3,63.7,69,30.13,10.0,South,6.9,-,N/A,,Clear,180,2013-08-25 06:15:00
1:35 AM,73.8,63.5,70,30.14,10.0,South,5.8,-,N/A,,Clear,170,2013-08-25 06:35:00
1:55 AM,73.6,63.3,70,30.14,10.0,South,6.9,-,N/A,,Clear,180,2013-08-25 06:55:00
2:15 AM,73.4,62.8,69,30.14,10.0,South,6.9,-,N/A,,Clear,180,2013-08-25 07:15:00
2:35 AM,73.9,62.6,68,30.15,10.0,South,6.9,-,N/A,,Clear,190,2013-08-25 07:35:00
2:55 AM,74.3,62.1,65,30.15,10.0,South,8.1,-,N/A,,Clear,180,2013-08-25 07:55:00
3:15 AM,73.8,62.1,67,30.15,10.0,South,8.1,-,N/A,,Clear,180,2013-08-25 08:15:00
3:35 AM,73.4,62.1,68,30.16,10.0,South,6.9,-,N/A,,Clear,180,2013-08-25 08:35:00
3:55 AM,72.7,62.1,69,30.16,10.0,South,6.9,-,N/A,,Clear,180,2013-08-25 08:55:00
4:15 AM,72.0,62.1,71,30.17,10.0,South,6.9,-,N/A,,Clear,170,2013-08-25 09:15:00
4:35 AM,70.7,62.1,74,30.17,10.0,South,4.6,-,N/A,,Clear,170,2013-08-25 09:35:00
4:55 AM,70.2,62.2,76,30.17,10.0,South,5.8,-,N/A,,Clear,170,2013-08-25 09:55:00
5:15 AM,70.0,62.2,76,30.18,10.0,South,5.8,-,N/A,,Clear,170,2013-08-25 10:15:00
5:35 AM,70.2,62.2,76,30.18,10.0,South,6.9,-,N/A,,Clear,170,2013-08-25 10:35:00
5:55 AM,70.0,62.4,77,30.18,10.0,South,5.8,-,N/A,,Clear,170,2013-08-25 10:55:00
6:15 AM,69.8,62.6,78,30.19,10.0,South,5.8,-,N/A,,Clear,180,2013-08-25 11:15:00
6:35 AM,69.8,62.6,78,30.19,10.0,South,6.9,-,N/A,,Clear,170,2013-08-25 11:35:00
6:55 AM,69.8,62.8,78,30.20,10.0,South,6.9,-,N/A,,Clear,170,2013-08-25 11:55:00
7:15 AM,69.8,63.0,79,30.20,10.0,South,6.9,-,N/A,,Clear,180,2013-08-25 12:15:00
7:35 AM,70.7,63.5,78,30.20,10.0,South,9.2,-,N/A,,Clear,180,2013-08-25 12:35:00
7:55 AM,72.0,63.9,76,30.21,10.0,South,6.9,-,N/A,,Clear,180,2013-08-25 12:55:00
8:15 AM,73.4,64.4,73,30.21,10.0,South,9.2,-,N/A,,Clear,180,2013-08-25 13:15:00
8:35 AM,75.0,65.3,72,30.21,10.0,South,8.1,16.1,N/A,,Clear,190,2013-08-25 13:35:00
8:55 AM,77.0,65.8,68,30.20,10.0,South,12.7,17.3,N/A,,Clear,190,2013-08-25 13:55:00
9:15 AM,77.9,66.0,67,30.20,10.0,SSW,15.0,-,N/A,,Clear,200,2013-08-25 14:15:00
9:35 AM,78.8,66.4,66,30.20,10.0,South,8.1,-,N/A,,Clear,180,2013-08-25 14:35:00
9:55 AM,80.1,66.7,64,30.20,10.0,South,9.2,20.7,N/A,,Clear,190,2013-08-25 14:55:00
10:15 AM,81.0,67.5,63,30.20,10.0,SSW,9.2,17.3,N/A,,Clear,200,2013-08-25 15:15:00
10:35 AM,82.2,68.2,62,30.20,10.0,South,9.2,-,N/A,,Clear,180,2013-08-25 15:35:00
10:55 AM,83.1,68.7,62,30.20,10.0,South,10.4,-,N/A,,Clear,190,2013-08-25 15:55:00
11:15 AM,83.8,69.1,61,30.19,10.0,South,9.2,-,N/A,,Clear,190,2013-08-25 16:15:00
11:35 AM,84.7,68.0,57,30.19,10.0,SSW,11.5,18.4,N/A,,Clear,200,2013-08-25 16:35:00
11:55 AM,85.6,67.8,55,30.18,10.0,SSW,12.7,20.7,N/A,,Clear,210,2013-08-25 16:55:00
12:15 PM,86.2,68.2,55,30.17,10.0,SSW,11.5,-,N/A,,Clear,200,2013-08-25 17:15:00
12:35 PM,87.3,66.9,51,30.17,10.0,SSW,12.7,19.6,N/A,,Clear,200,2013-08-25 17:35:00
12:55 PM,88.2,67.1,50,30.16,10.0,South,10.4,18.4,N/A,,Clear,190,2013-08-25 17:55:00
1:15 PM,89.2,65.8,46,30.15,10.0,SSW,11.5,19.6,N/A,,Clear,200,2013-08-25 18:15:00
1:35 PM,89.6,66.6,46,30.15,10.0,South,10.4,17.3,N/A,,Clear,180,2013-08-25 18:35:00
1:55 PM,90.3,65.8,44,30.15,10.0,SSW,11.5,18.4,N/A,,Clear,200,2013-08-25 18:55:00
2:15 PM,90.7,65.7,43,30.14,10.0,South,8.1,16.1,N/A,,Clear,180,2013-08-25 19:15:00
2:35 PM,91.4,64.2,40,30.13,10.0,South,11.5,18.4,N/A,,Clear,180,2013-08-25 19:35:00
2:55 PM,91.6,65.3,42,30.13,10.0,SSE,8.1,17.3,N/A,,Clear,160,2013-08-25 19:55:00
3:15 PM,91.8,65.5,42,30.12,10.0,South,5.8,9.2,N/A,,Clear,170,2013-08-25 20:15:00
3:35 PM,91.8,65.3,41,30.12,10.0,South,10.4,16.1,N/A,,Clear,170,2013-08-25 20:35:00
3:55 PM,91.9,64.9,41,30.12,10.0,South,9.2,-,N/A,,Clear,190,2013-08-25 20:55:00
4:15 PM,92.3,64.8,40,30.12,10.0,South,6.9,-,N/A,,Clear,170,2013-08-25 21:15:00
4:35 PM,91.9,62.4,37,30.11,10.0,South,10.4,16.1,N/A,,Clear,170,2013-08-25 21:35:00
4:55 PM,91.9,61.3,36,30.11,10.0,South,9.2,-,N/A,,Clear,170,2013-08-25 21:55:00
5:15 PM,91.6,62.2,37,30.11,10.0,South,8.1,-,N/A,,Clear,180,2013-08-25 22:15:00
5:35 PM,91.4,61.3,36,30.12,10.0,South,9.2,-,N/A,,Clear,180,2013-08-25 22:35:00
5:55 PM,90.7,63.3,40,30.12,10.0,South,5.8,-,N/A,,Clear,170,2013-08-25 22:55:00
6:15 PM,90.1,63.9,42,30.12,10.0,South,9.2,-,N/A,,Clear,170,2013-08-25 23:15:00
6:35 PM,89.1,64.6,44,30.11,10.0,SSE,5.8,-,N/A,,Clear,160,2013-08-25 23:35:00
6:55 PM,87.8,65.1,47,30.11,10.0,SSE,5.8,-,N/A,,Clear,160,2013-08-25 23:55:00
7:15 PM,86.4,65.8,50,30.11,10.0,SSE,5.8,-,N/A,,Clear,150,2013-08-26 00:15:00
7:35 PM,85.1,66.4,53,30.11,10.0,SSE,6.9,-,N/A,,Clear,160,2013-08-26 00:35:00
7:55 PM,84.0,66.2,55,30.12,10.0,SSE,6.9,-,N/A,,Clear,160,2013-08-26 00:55:00
8:15 PM,83.3,65.7,55,30.12,10.0,SSE,9.2,-,N/A,,Clear,160,2013-08-26 01:15:00
8:35 PM,82.8,65.3,55,30.12,10.0,South,8.1,-,N/A,,Clear,170,2013-08-26 01:35:00
8:55 PM,82.4,65.3,56,30.12,10.0,South,8.1,-,N/A,,Clear,170,2013-08-26 01:55:00
9:15 PM,81.7,65.1,57,30.13,10.0,South,9.2,-,N/A,,Clear,170,2013-08-26 02:15:00
9:35 PM,81.0,65.3,59,30.14,10.0,South,8.1,-,N/A,,Clear,170,2013-08-26 02:35:00
9:55 PM,79.9,65.5,61,30.14,10.0,South,6.9,-,N/A,,Clear,170,2013-08-26 02:55:00
10:15 PM,78.8,65.8,64,30.14,10.0,South,6.9,-,N/A,,Clear,170,2013-08-26 03:15:00
10:35 PM,78.8,66.2,65,30.14,10.0,South,5.8,-,N/A,,Clear,170,2013-08-26 03:35:00
10:55 PM,77.9,66.4,68,30.15,10.0,South,5.8,-,N/A,,Clear,170,2013-08-26 03:55:00
11:15 PM,77.2,66.6,70,30.15,10.0,South,5.8,-,N/A,,Clear,170,2013-08-26 04:15:00
11:35 PM,76.5,66.9,72,30.15,10.0,South,5.8,-,N/A,,Clear,170,2013-08-26 04:35:00
11:55 PM,76.1,67.1,74,30.15,10.0,South,5.8,-,N/A,,Clear,170,2013-08-26 04:55:00